FW6182 Weather Reports


time (UTC)temp
C
wind
direction
speed
KPH
gust
KPH
rain 1hr
cm
rain 24hr
cm
rain mn
cm
humidity
%
barometer
mb
20260507124925 8 75 1.6 22.5 0.00 0.00 0.00 86 373.3
20260507124424 8 81 1.6 22.5 0.00 0.00 0.00 86 374.0
20260507121821 6 71 0.0 22.5 0.00 0.00 0.00 92 363.3
20260507121321 6 73 0.0 22.5 0.00 0.00 0.00 92 356.2
20260507120820 6 77 0.0 22.5 0.00 0.00 0.00 92 340.7
20260507120319 5 55 0.0 22.5 0.00 0.00 0.00 92 339.0
20260507115818 5 72 0.0 22.5 0.00 0.00 0.00 92 309.4
20260507114246 3 17 0.0 22.5 0.00 0.00 0.00 91 226.6
20260507113744 3 16 0.0 22.5 0.00 0.00 0.00 90 243.1
20260507113244 3 96 0.0 22.5 0.00 0.00 0.00 89 274.0
20260507112742 3 15 0.0 22.5 0.00 0.00 0.00 89 204.2
20260507112241 3 15 0.0 22.5 0.00 0.00 0.00 89 206.7
20260507111741 3 15 0.0 22.5 0.00 0.00 0.00 89 211.8
20260507111240 3 15 0.0 22.5 0.00 0.00 0.00 89 221.6
20260507104636 3 31 0.0 22.5 0.00 0.00 0.00 89 266.5
20260507104136 3 31 0.0 22.5 0.00 0.00 0.00 88 284.5
20260507103635 3 40 0.0 22.5 0.00 0.00 0.00 88 311.8
20260507101548 3 24 0.0 22.5 0.00 0.00 0.00 88 252.7
20260507101047 3 25 0.0 22.5 0.00 0.00 0.00 88 273.8
20260507100546 3 55 0.0 22.5 0.00 0.00 0.00 88 315.2
20260507100046 3 46 0.0 22.5 0.00 0.00 0.00 88 316.4
20260507095545 3 64 0.0 22.5 0.00 0.00 0.00 89 345.7
20260507094012 3 71 0.0 22.5 0.00 0.00 0.00 88 366.3
20260507093511 3 64 0.0 22.5 0.00 0.00 0.00 88 362.1
20260507091939 3 68 0.0 22.5 0.00 0.00 0.00 88 329.0
20260507085853 4 44 0.0 22.5 0.00 0.00 0.00 88 279.9
20260507084836 4 18 0.0 22.5 0.00 0.00 0.00 88 269.8
20260507083304 4 106 0.0 22.5 0.00 0.00 0.00 88 355.8
20260507082804 4 63 0.0 22.5 0.00 0.00 0.00 88 317.9
20260507082306 4 52 0.0 22.5 0.00 0.00 0.00 88 338.0
20260507081803 4 64 0.0 22.5 0.00 0.00 0.00 88 346.6
20260507081302 5 60 0.0 22.5 0.00 0.00 0.00 88 350.7
20260507075730 4 61 0.0 22.5 0.00 0.00 0.00 88 374.7
20260507075230 4 79 0.0 22.5 0.00 0.00 0.00 88 366.2
20260507074729 4 43 0.0 22.5 0.00 0.00 0.00 87 327.3
20260507072642 5 60 0.0 22.5 0.00 0.00 0.00 87 326.9
20260507072141 5 54 0.0 22.5 0.00 0.00 0.00 87 318.4
20260507071640 5 54 0.0 22.5 0.00 0.00 0.00 87 320.2
20260507071139 5 55 0.0 22.5 0.00 0.00 0.00 87 327.8
20260507070122 5 72 0.0 22.5 0.00 0.00 0.00 87 305.9
20260507065106 5 38 0.0 22.5 0.00 0.00 0.00 87 286.4
20260507063018 5 44 0.0 22.5 0.00 0.00 0.00 87 329.4
20260507060931 5 75 0.0 22.5 0.00 0.00 0.00 87 339.8
20260507060430 5 72 0.0 22.5 0.00 0.00 0.00 86 304.7
20260507055929 5 38 0.0 22.5 0.00 0.00 0.00 86 263.4
20260507054914 5 34 0.0 22.5 0.00 0.00 0.00 85 277.1
20260507053858 5 35 0.0 22.5 0.00 0.00 0.00 85 326.5
20260507051254 5 90 0.0 22.5 0.00 0.00 0.00 85 380.0
20260507050753 5 62 0.0 22.5 0.00 0.00 0.00 85 329.2
20260507050252 6 22 0.0 22.5 0.00 0.00 0.00 85 300.6
20260507045751 6 42 0.0 22.5 0.00 0.00 0.00 85 321.7
20260507044219 6 66 0.0 22.5 0.00 0.00 0.00 85 331.2
20260507042646 6 73 0.0 22.5 0.00 0.00 0.00 84 364.5
20260507042146 6 63 0.0 22.5 0.00 0.00 0.00 84 362.7
20260507041645 6 67 0.0 22.5 0.00 0.00 0.00 83 375.8
20260507040628 6 84 0.0 22.5 0.00 0.00 0.00 82 396.6
20260507040127 6 74 0.0 22.5 0.00 0.00 0.00 82 377.2
20260507035626 6 76 0.0 22.5 0.00 0.00 0.00 81 374.0
20260507032505 7 66 0.0 22.5 0.00 0.00 0.00 79 349.9
20260507031448 7 72 0.0 22.5 0.00 0.00 0.00 79 414.7
20260507030947 7 83 0.0 22.5 0.00 0.00 0.00 78 436.2
20260507030447 7 100 0.0 22.5 0.00 0.00 0.00 77 450.1
20260507025430 8 109 0.0 22.5 0.00 0.00 0.00 77 429.0
20260507024930 8 87 0.0 22.5 0.00 0.00 0.00 76 402.5
20260507023357 8 72 0.0 22.5 0.00 0.00 0.00 74 326.8
20260507021824 9 42 0.0 22.5 0.00 0.00 0.00 70 296.7
20260507020807 10 48 0.0 22.5 0.00 0.00 0.00 69 325.6
20260507020306 10 58 0.0 22.5 0.00 0.00 0.00 68 348.6
20260507015805 10 73 0.0 22.5 0.00 0.00 0.00 66 366.7
20260507015306 10 85 0.0 22.5 0.00 0.00 0.00 65 327.6
20260507014248 11 37 0.0 22.5 0.00 0.00 0.00 64 290.6
20260507012716 12 60 0.0 22.5 0.00 0.00 0.00 61 294.7
20260507012215 12 47 0.0 22.5 0.00 0.00 0.00 57 261.8
20260507011715 13 25 0.0 22.5 0.00 0.00 0.00 54 254.0
20260507011214 13 29 0.0 22.5 0.00 0.00 0.00 51 277.4
20260507010713 13 40 1.6 22.5 0.00 0.00 0.00 54 292.3
20260507005141 13 63 3.2 22.5 0.00 0.00 0.00 49 370.4
20260507004640 13 80 3.2 22.5 0.00 0.00 0.00 49 369.9
20260507003623 14 72 3.2 22.5 0.00 0.00 0.00 47 373.0
20260507003123 15 44 4.8 22.5 0.00 0.00 0.00 46 363.4
20260507001550 15 83 4.8 22.5 0.00 0.00 0.00 44 651.3
20260507000533 15 5 6.4 22.5 0.00 0.00 0.00 42 713.8
20260507000032 15 113 9.7 22.5 0.00 0.00 0.00 43 649.8
20260506234500 15 223 6.4 22.5 0.00 0.00 0.00 42 827.7
20260506233959 15 212 8.0 22.5 0.00 0.00 0.00 43 798.5
20260506232943 15 146 11.3 22.5 0.00 0.00 0.00 42 713.1
20260506232442 16 137 8.0 22.5 0.00 0.00 0.00 41 716.4
20260506230909 15 228 12.9 22.5 0.00 0.00 0.00 43 764.6
20260506224305 16 120 12.9 24.1 0.00 0.00 0.00 40 709.2
20260506223805 16 202 11.3 22.5 0.00 0.00 0.00 42 736.8
20260506221715 16 357 8.0 20.9 0.00 0.00 0.00 42 1062.2
20260506221215 16 9 12.9 20.9 0.00 0.00 0.00 41 907.4
20260506220157 16 211 8.0 20.9 0.00 0.00 0.00 42 838.0
20260506214624 16 220 9.7 22.5 0.00 0.00 0.00 45 861.7
20260506214124 16 23 11.3 22.5 0.00 0.00 0.00 42 979.1
20260506213624 16 11 8.0 20.9 0.00 0.00 0.00 42 934.5
20260506213123 16 5 14.5 20.9 0.00 0.00 0.00 42 824.3
20260506212106 16 186 9.7 20.9 0.00 0.00 0.00 45 794.7
20260506211605 16 359 9.7 20.9 0.00 0.00 0.00 40 824.0
20260506210547 15 68 9.7 22.5 0.00 0.00 0.00 42 678.0
20260506205531 15 36 8.0 25.7 0.00 0.00 0.00 39 745.6
20260506205030 15 121 14.5 25.7 0.00 0.00 0.00 42 727.6
20260506204528 16 179 17.7 25.7 0.00 0.00 0.00 43 755.4
20260506200337 15 202 14.5 20.9 0.00 0.00 0.00 42 719.7
20260506195836 15 93 6.4 24.1 0.00 0.00 0.00 43 701.5
20260506195335 15 197 14.5 24.1 0.00 0.00 0.00 42 822.7
20260506193801 15 107 11.3 25.7 0.00 0.00 0.00 41 588.1
20260506191714 15 34 14.5 20.9 0.00 0.00 0.00 42 803.1
20260506191213 15 44 9.7 20.9 0.00 0.00 0.00 43 732.7
20260506190156 15 170 14.5 25.7 0.00 0.00 0.00 41 822.2
20260506185655 15 51 19.3 25.7 0.00 0.00 0.00 42 978.2
20260506185154 15 356 11.3 25.7 0.00 0.00 0.00 42 983.2
20260506184137 15 22 8.0 22.5 0.00 0.00 0.00 47 720.9
20260506183636 15 57 9.7 22.5 0.00 0.00 0.00 45 685.6
20260506182104 15 161 4.8 20.9 0.00 0.00 0.00 46 716.1
20260506180531 15 92 12.9 24.1 0.00 0.00 0.00 46 771.2
20260506174958 15 148 14.5 20.9 0.00 0.00 0.00 50 817.3
20260506172911 14 32 9.7 20.9 0.00 0.00 0.00 52 678.3
20260506165751 14 357 8.0 20.9 0.00 0.00 0.00 54 881.6
20260506165250 14 0 12.9 20.9 0.00 0.00 0.00 55 871.4
20260506164234 13 58 14.5 24.1 0.00 0.00 0.00 54 704.9
20260506162701 13 13 12.9 22.5 0.00 0.00 0.00 58 1039.5
20260506162200 13 354 14.5 22.5 0.00 0.00 0.00 58 1048.7
20260506155556 12 0 14.5 17.7 0.00 0.00 0.00 61 960.0
20260506155055 13 40 9.7 17.7 0.00 0.00 0.00 60 874.4
20260506154038 12 20 11.3 17.7 0.00 0.00 0.00 58 901.9
20260506153537 12 0 12.9 17.7 0.00 0.00 0.00 61 1030.8
20260506150418 12 60 9.7 17.7 0.00 0.00 0.00 64 801.6
20260506145917 12 12 11.3 17.7 0.00 0.00 0.00 64 815.4
20260506145416 12 30 11.3 17.7 0.00 0.00 0.00 64 805.1
20260506144915 12 16 9.7 17.7 0.00 0.00 0.00 67 799.4
20260506144414 11 50 9.7 17.7 0.00 0.00 0.00 67 870.7
20260506143914 11 22 8.0 17.7 0.00 0.00 0.00 69 900.7
20260506143413 11 357 6.4 17.7 0.00 0.00 0.00 72 931.5
20260506142912 11 51 8.0 17.7 0.00 0.00 0.00 71 756.4
20260506141340 11 53 6.4 17.7 0.00 0.00 0.00 71 1028.5
20260506140840 11 356 8.0 17.7 0.00 0.00 0.00 72 1219.2
20260506140339 10 354 4.8 22.5 0.00 0.00 0.00 72 1214.8
20260506135839 10 357 4.8 22.5 0.00 0.00 0.00 73 1215.2
20260506135339 10 352 4.8 22.5 0.00 0.00 0.00 72 1204.7
20260506134838 11 352 3.2 22.5 0.00 0.00 0.00 76 1203.8
20260506134338 11 351 6.4 22.5 0.00 0.00 0.00 75 1204.4
20260506133837 11 355 6.4 22.5 0.00 0.00 0.00 78 1198.4
20260506133336 10 342 8.0 22.5 0.00 0.00 0.00 77 1173.1
20260506132319 10 316 6.4 22.5 0.00 0.00 0.00 80 1109.8
20260506131818 9 329 1.6 22.5 0.00 0.00 0.00 83 1094.5
20260506131317 9 339 4.8 22.5 0.00 0.00 0.00 83 1043.1
20260506130817 8 338 1.6 22.5 0.00 0.00 0.00 83 916.8
20260506125801 8 31 3.2 22.5 0.00 0.00 0.00 84 248.5
20260506125300 8 65 3.2 22.5 0.00 0.00 0.00 84 252.3